User: anonymous   Login
Location: ??????
(55.6130°N, 37.7882°E)
Time: 01:15:50
(UTC+00:00)
Language:

RESURS DK-1 - Orbit

View from above orbital plane
View from above orbital plane
View from above satellite
View from above satellite

Ground track
Ground track

The orbit data is extracted from the following two-line orbital elements,

1 29228U 06021A   24175.85574307  .00002681  00000-0  18366-3 0  9994
2 29228  69.9357  44.6486 0004858 323.4136  36.6694 15.07346894993353
Epoch (UTC): 23 June 2024 20:32:16
Eccentricity: 0.0004858
inclination: 69.9357°
perigee height: 541 km
apogee height: 547 km
right ascension of ascending node: 44.6486°
argument of perigee: 323.4136°
revolutions per day: 15.07346894
mean anomaly at epoch: 36.6694°
orbit number at epoch: 99335

The dashed part of the orbit path shows where the satellite is in the earth's shadow,  

DLR